Theta_e
302 302 301 301 301 301 300 300 300 300 300 300 299 299 299 299 298 298 298 297 297 297 296 296 296 295 295 294 294 294 293 293 293 293 292 292 292 292 292 292 292 291 291 291 290 290 290 289 289 289 288 288 288 288 287 287 287 286 286 286 286 285
302 301 301 301 300 300 300 300 300 300 299 299 299 299 298 298 298 298 297 297 296 296 296 296 295 295 294 293 293 293 292 292 292 292 292 292 291 291 291 291 291 290 290 290 289 289 289 288 288 288 288 287 287 287 287 286 286 286 285 285 285 285
301 301 301 301 300 300 300 300 299 299 299 299 298 298 298 298 297 297 296 296 296 295 295 295 294 293 293 292 292 292 291 291 291 291 291 291 291 291 291 290 290 290 289 289 289 289 288 288 288 287 287 287 287 287 287 286 286 285 285 285 285 285
301 301 301 300 300 300 300 299 299 299 299 298 298 297 297 297 297 296 296 295 295 294 294 294 293 292 292 291 291 291 291 291 290 290 290 290 290 290 290 290 290 289 289 289 288 288 288 288 287 287 287 287 287 287 287 286 285 285 285 285 284 284
301 301 300 300 300 299 299 299 299 299 298 298 297 297 297 296 296 296 295 295 294 294 293 292 292 291 291 290 290 290 290 290 290 290 290 290 290 290 290 290 289 289 289 288 288 288 288 287 287 287 287 287 287 287 286 286 285 285 284 284 284 284
301 301 300 300 300 299 299 299 298 298 298 298 297 296 296 295 295 295 294 294 293 293 292 291 291 290 290 290 290 290 289 289 290 290 290 290 290 289 289 289 289 289 288 288 288 287 287 287 286 286 286 287 287 287 286 286 285 284 284 284 284 284
301 301 300 300 300 299 299 298 298 298 298 298 297 295 295 294 294 294 294 293 293 292 291 291 290 290 290 289 289 289 289 289 290 290 290 290 289 289 289 289 289 288 288 288 287 287 287 287 286 286 286 286 287 287 286 285 285 284 284 284 284 284
301 301 300 300 300 299 299 298 298 298 298 297 296 295 294 294 294 294 293 292 292 291 291 290 290 289 289 289 289 289 289 289 289 290 289 289 289 289 289 289 288 288 288 287 287 287 287 286 286 286 286 286 286 286 286 285 284 284 284 284 284 284
301 301 300 300 300 299 299 298 298 298 298 296 295 294 294 294 294 293 292 292 291 291 290 290 289 289 289 289 289 289 289 290 289 289 289 289 289 289 289 289 288 288 288 287 287 287 286 286 286 286 286 286 286 286 286 285 284 284 284 284 284 284
301 300 300 300 299 299 299 299 298 298 297 296 295 294 294 294 293 293 292 291 291 290 290 289 289 289 289 289 289 289 289 290 289 289 289 289 289 289 289 288 288 288 287 287 287 287 286 286 286 286 286 286 286 285 285 284 284 283 283 283 283 283
301 300 300 300 300 300 299 299 298 298 296 295 295 295 294 294 293 292 292 291 291 290 289 289 289 289 288 288 288 289 289 290 289 290 289 289 289 289 289 288 288 288 287 287 287 287 286 286 286 286 286 285 285 285 284 283 283 283 283 283 283 283
301 301 301 300 300 300 299 299 299 297 296 295 295 295 294 294 293 292 292 291 290 289 289 289 288 288 288 288 288 289 289 290 289 289 290 289 289 289 288 288 288 288 287 287 287 287 287 286 285 285 285 285 285 284 284 283 283 283 283 283 283 283
302 301 301 301 301 300 300 299 299 297 296 295 295 295 295 294 293 292 292 291 290 289 289 289 288 288 288 288 288 289 289 289 289 289 289 289 289 289 288 288 288 288 287 287 287 287 287 286 285 285 285 285 284 283 283 283 283 283 283 283 283 283
302 302 302 302 301 300 300 299 299 297 296 295 296 296 295 294 294 293 292 291 290 289 289 289 288 288 288 288 288 289 289 289 289 289 289 289 289 289 288 288 288 288 288 287 287 287 287 286 285 285 285 284 284 283 282 282 282 283 283 283 283 283
304 304 303 302 301 301 300 300 299 298 297 296 297 297 295 295 294 293 292 290 290 289 289 288 288 288 288 288 288 288 289 289 289 289 289 289 289 289 288 288 288 288 287 287 287 287 286 286 285 285 285 284 283 282 282 282 282 282 282 283 283 283
305 304 303 302 302 301 300 300 299 299 298 298 297 297 296 295 294 293 292 291 290 289 289 288 288 288 287 287 287 288 289 289 289 289 288 288 288 288 288 288 288 287 287 287 287 287 286 285 285 285 284 284 283 282 282 282 282 282 282 282 282 282
305 304 303 302 301 301 300 300 300 299 299 298 298 297 296 295 294 293 292 291 290 290 289 289 288 288 287 287 287 287 288 289 289 289 288 288 288 288 288 288 288 287 287 287 287 287 286 285 285 285 284 283 282 281 281 282 282 282 282 282 282 282
303 303 302 301 300 300 300 299 299 299 299 298 298 297 296 295 294 293 292 291 290 290 290 290 289 288 288 287 287 287 288 288 289 288 288 288 288 288 288 288 288 287 287 287 287 287 286 285 285 284 284 283 282 281 281 281 281 282 282 282 282 282
302 301 300 299 299 299 298 299 299 299 299 299 298 297 296 295 294 294 292 290 290 291 292 292 292 291 289 288 287 287 287 288 288 288 288 288 288 288 288 288 287 287 287 287 287 287 286 285 285 284 284 283 281 281 281 281 281 282 282 282 281 281
300 299 298 298 298 298 298 299 299 299 299 299 299 298 297 296 295 294 293 291 291 292 294 294 293 292 291 289 288 287 287 288 288 288 288 288 288 288 288 288 287 287 287 287 287 286 286 286 285 285 284 282 281 281 281 281 281 281 281 281 281 281
297 297 297 297 297 298 298 298 298 298 298 298 298 298 297 297 296 295 294 293 293 294 294 294 294 293 292 290 288 287 287 288 288 288 288 288 288 288 288 288 287 287 287 287 286 286 286 286 285 285 284 282 281 280 280 280 281 281 281 280 280 280
296 296 296 297 298 298 298 298 297 297 297 297 297 297 297 297 297 296 295 294 294 294 294 294 293 293 292 290 289 288 288 288 288 288 288 288 288 288 288 287 287 287 287 286 286 286 286 286 285 285 284 282 281 280 280 280 280 280 280 280 280 279
296 296 297 297 298 298 297 297 297 297 296 296 296 296 296 296 296 296 295 295 294 294 294 293 293 292 291 290 289 289 289 289 288 288 288 288 288 288 288 287 287 287 287 286 286 286 286 285 285 285 284 283 281 280 280 280 280 280 280 279 279 279
296 297 297 297 297 297 296 296 296 295 295 295 294 294 294 294 294 294 294 294 294 293 293 292 292 291 291 290 289 289 289 288 288 288 288 288 288 288 287 287 287 286 286 286 286 286 285 285 285 285 284 282 281 280 280 280 280 280 279 279 279 279
297 297 297 297 296 296 295 294 294 294 293 293 293 292 292 292 292 292 292 292 292 292 292 292 291 291 290 290 289 288 288 288 288 288 288 288 287 287 287 287 286 286 286 286 286 285 285 285 285 284 284 282 281 280 280 279 279 279 279 279 278 278
297 296 296 295 294 294 293 293 292 292 292 292 292 291 291 291 290 291 291 291 291 291 291 291 290 290 289 289 288 288 288 288 288 288 288 287 287 287 287 287 286 286 286 286 285 285 285 285 284 284 283 282 281 280 279 279 279 279 278 278 278 278
295 294 294 293 292 292 292 292 292 292 291 291 291 291 291 290 290 290 290 290 290 290 290 290 290 289 289 288 288 288 288 289 288 288 288 288 287 287 287 287 286 286 286 285 285 285 285 284 284 284 283 282 281 280 279 279 279 278 278 278 278 277
292 292 292 292 292 292 292 291 292 291 291 291 291 291 291 291 291 290 290 290 290 289 289 289 289 289 288 288 288 289 289 289 288 288 288 288 287 287 287 287 286 286 286 285 285 285 284 284 284 284 283 282 280 280 279 279 279 278 278 277 277 277
292 292 292 292 292 292 292 291 291 291 291 291 291 291 291 291 291 291 290 290 290 289 289 289 289 289 288 288 289 289 289 288 288 288 288 288 287 287 287 287 286 286 285 285 285 284 284 284 284 284 283 282 280 280 279 279 279 278 278 277 277 276
292 292 292 292 292 292 292 292 291 292 291 291 291 291 291 291 291 291 291 290 290 290 289 289 289 289 289 289 289 289 288 288 288 288 288 288 287 287 286 286 286 285 285 285 284 284 284 283 283 283 282 281 280 279 279 279 279 278 277 277 276 276
292 292 292 292 292 292 292 291 292 292 291 291 291 291 291 291 291 291 291 291 290 290 290 290 289 289 289 289 288 288 288 288 288 288 288 288 287 286 286 285 285 285 284 284 284 284 283 283 283 282 281 280 279 279 278 278 278 277 276 275 275 275
292 292 292 292 292 291 291 291 291 291 291 291 291 291 291 291 291 291 291 290 290 290 290 290 289 289 289 289 289 288 288 288 288 288 288 287 287 286 285 285 284 284 284 284 284 283 283 283 282 281 280 279 278 278 278 277 277 276 275 274 274 275
292 292 292 292 291 291 291 291 291 291 291 291 291 291 291 291 290 290 290 290 290 290 290 290 290 289 289 289 289 288 288 288 288 288 287 287 287 286 285 284 284 284 284 284 283 283 283 282 282 280 279 278 278 277 277 277 276 275 274 274 275 275
292 292 291 291 291 291 291 291 291 291 291 291 291 291 291 290 290 290 290 290 290 289 289 289 289 289 289 288 288 288 288 288 287 287 287 287 286 285 285 284 284 283 283 283 283 283 282 282 281 280 279 278 277 277 276 276 275 274 274 275 275 274
291 291 291 291 291 291 291 291 291 291 291 291 290 290 290 290 290 290 290 289 289 289 289 289 288 288 288 288 287 287 287 287 287 287 286 285 285 285 284 284 284 283 283 282 282 282 282 281 281 279 278 277 277 276 276 275 274 273 274 274 274 273
291 291 291 291 291 291 291 291 291 291 291 290 290 290 290 290 290 290 289 289 289 289 288 288 288 287 287 287 286 286 286 286 286 285 284 284 284 284 284 284 284 283 282 282 281 281 281 280 279 278 277 276 276 275 275 274 273 273 274 274 273 273
291 291 290 290 290 290 290 290 290 290 290 290 290 290 290 290 290 290 289 289 289 289 288 288 287 287 286 286 285 285 284 284 284 283 283 283 283 283 283 283 283 282 281 281 281 280 280 279 278 277 276 276 275 275 274 273 273 273 274 273 273 273
291 291 290 290 290 290 290 290 290 290 290 290 290 290 290 289 289 289 289 289 289 288 288 287 287 286 286 285 284 283 283 282 282 282 282 282 281 282 282 281 282 281 281 280 280 279 279 278 277 276 276 275 275 274 273 273 273 274 274 273 273 273
Wind_Speed
41 41 40 38 37 35 34 33 32 30 29 27 26 25 24 23 22 20 19 18 16 15 14 13 12 11 11 10 9 9 8 7 6 5 5 6 7 8 9 10 10 11 12 13 14 15 16 17 18 18 19 19 19 19 19 19 18 18 18 18 19 20
41 41 40 38 37 36 35 34 32 30 29 28 27 26 24 23 22 21 20 18 17 16 16 15 14 13 13 12 11 10 9 8 7 7 7 7 8 9 9 10 10 11 13 13 14 15 16 17 18 18 18 18 18 18 18 18 18 17 18 18 19 20
42 41 40 38 38 37 35 34 32 31 30 29 27 26 25 24 23 22 21 20 19 18 17 16 16 15 14 13 12 11 10 9 8 8 8 8 8 9 9 10 10 11 12 13 14 16 17 18 18 19 19 19 18 18 18 18 18 18 18 19 20 22
43 42 41 40 39 38 36 34 33 32 31 29 28 27 25 25 24 23 23 22 21 19 18 18 17 16 15 14 13 12 11 10 9 9 9 9 8 9 9 10 11 11 13 14 15 17 18 19 19 19 20 19 19 19 19 19 19 19 20 21 22 23
44 43 43 42 40 39 37 36 35 33 32 30 29 28 27 26 25 24 24 23 21 20 20 19 18 17 16 15 13 12 11 11 10 10 10 9 9 9 9 10 11 12 13 15 17 18 19 20 20 20 20 20 20 20 20 20 20 21 22 22 23 24
46 45 45 43 42 40 38 37 36 34 32 31 31 30 29 28 26 25 24 23 22 21 21 20 19 18 17 15 14 13 12 12 11 11 10 10 9 10 10 11 12 13 15 16 18 19 20 20 21 21 21 21 21 21 21 21 22 22 23 23 24 25
47 47 46 45 43 42 39 37 36 34 33 34 33 32 30 29 27 26 25 24 23 23 22 22 21 19 18 16 15 14 13 13 12 11 11 11 10 10 10 11 13 14 16 17 18 20 21 21 21 21 21 21 21 22 22 22 22 22 23 23 24 25
49 48 47 46 44 42 40 38 36 36 36 36 34 33 31 29 28 26 26 25 24 24 24 23 22 21 19 18 16 15 15 14 13 13 12 11 10 10 11 12 14 15 17 18 19 20 21 22 22 22 22 22 22 22 22 22 22 23 23 23 24 24
49 49 48 47 44 42 40 39 39 38 38 37 35 33 32 30 28 28 27 26 26 26 26 25 23 22 20 19 18 16 16 15 14 14 12 11 11 11 11 13 15 16 17 18 20 21 22 23 23 22 22 22 22 22 23 23 23 23 23 23 24 24
50 49 48 46 43 42 42 41 41 40 39 38 36 34 32 31 30 29 28 28 28 28 27 26 25 23 22 20 19 18 18 17 16 14 13 12 11 11 13 14 15 16 17 19 20 22 23 24 23 23 23 22 22 22 23 23 23 23 23 23 23 24
50 48 47 45 44 44 44 44 43 42 40 39 36 35 33 32 30 30 30 30 30 29 28 28 27 25 23 21 20 20 19 18 17 15 13 13 13 13 14 15 15 16 18 20 21 23 24 24 24 23 23 23 23 23 23 23 23 23 23 22 23 23
49 48 46 46 47 47 47 47 45 43 41 39 37 35 34 33 32 31 32 32 31 31 30 30 29 26 24 23 22 21 20 19 17 15 14 14 14 15 15 15 15 17 19 20 22 24 24 25 25 24 24 23 23 24 23 23 23 22 22 22 22 23
47 48 48 49 50 49 48 48 46 44 42 40 37 36 35 34 33 33 34 34 33 32 32 31 29 27 26 25 24 22 21 20 18 16 15 16 16 16 16 16 16 18 19 21 22 24 25 25 25 24 24 23 23 24 24 24 24 22 22 22 23 24
45 47 49 50 51 50 50 50 47 45 42 39 37 36 36 36 35 35 36 35 34 35 34 32 29 28 28 27 25 24 22 21 19 18 18 17 18 18 17 17 18 19 20 21 22 24 25 25 25 25 24 23 23 24 25 24 24 23 23 23 23 24
40 43 46 49 50 51 51 50 46 43 41 39 37 38 38 38 37 37 37 37 37 37 34 31 30 30 30 28 26 25 23 22 21 20 19 19 19 19 19 19 19 20 21 21 22 24 25 25 26 25 24 24 24 24 25 25 24 24 24 24 24 25
34 36 38 41 44 45 45 44 42 41 40 38 38 39 40 39 39 39 39 39 39 37 33 30 31 31 30 29 28 26 25 24 23 22 21 20 20 20 20 21 21 21 21 22 23 25 25 25 25 25 24 24 24 25 25 25 25 25 24 24 25 26
26 27 27 28 29 30 32 34 35 37 38 38 39 41 41 41 41 40 40 40 39 35 31 31 32 32 31 30 29 29 28 26 25 24 23 22 21 22 22 23 22 22 22 22 23 25 25 25 26 25 25 25 25 26 26 26 26 25 25 25 26 26
20 20 18 18 18 21 23 25 28 30 33 35 37 39 40 41 41 40 40 39 37 33 31 31 31 31 32 31 31 31 30 28 27 26 25 24 23 23 24 24 24 23 22 23 24 25 25 25 26 26 25 25 25 26 26 26 26 26 26 26 27 27
17 16 16 17 19 20 22 23 25 27 29 31 33 35 37 38 38 38 38 38 35 32 30 30 31 31 32 32 31 31 30 29 28 27 26 25 25 25 26 26 25 24 23 23 24 25 26 25 26 26 26 25 26 27 27 27 27 27 27 27 28 28
18 18 19 20 20 21 21 21 22 23 25 27 28 29 31 33 33 34 36 36 34 31 30 30 30 31 31 32 31 31 30 29 28 28 27 26 26 27 27 27 26 25 24 24 24 26 26 26 26 26 26 26 27 27 27 27 27 28 28 28 28 29
20 20 21 21 22 21 21 20 20 21 22 23 23 25 27 29 30 32 33 33 32 30 30 30 30 31 31 31 31 30 29 29 28 28 27 27 27 28 28 28 27 26 25 25 25 26 27 27 26 27 27 27 27 28 28 28 28 28 28 29 29 29
21 21 21 22 22 21 20 20 20 21 21 21 22 23 24 25 26 28 29 30 30 30 29 30 30 31 31 31 30 29 29 29 29 28 28 28 28 29 30 29 28 27 27 26 25 26 27 28 28 27 27 28 28 28 28 28 28 28 28 29 29 29
20 21 21 21 20 20 20 20 20 20 20 20 22 23 23 22 23 25 27 28 29 29 29 29 30 31 30 30 29 28 29 29 29 28 28 28 29 30 30 30 29 29 28 27 26 26 27 29 29 28 28 28 28 29 28 28 28 27 27 28 29 29
20 21 21 20 19 19 18 19 19 20 20 21 23 22 21 21 22 24 25 26 27 28 29 29 29 29 29 29 28 28 29 28 28 28 28 29 30 31 31 31 30 30 30 29 28 27 28 29 30 29 28 28 29 29 28 28 28 26 26 28 29 28
19 20 19 18 18 17 17 18 19 20 21 23 22 21 20 21 22 23 24 25 27 28 28 28 28 28 28 29 28 28 28 27 27 28 28 29 30 31 31 31 31 31 31 30 30 29 29 29 30 30 29 28 29 29 28 27 26 25 25 27 28 27
18 17 16 16 16 17 18 19 20 21 23 23 21 20 20 21 22 24 26 26 27 28 28 28 28 29 29 29 28 28 27 27 27 28 28 29 30 31 32 32 32 32 32 32 32 31 31 30 30 29 29 29 29 29 28 27 25 24 24 26 26 26
15 15 15 15 16 17 19 20 21 23 24 23 21 20 20 20 22 24 27 28 29 30 30 30 30 30 30 30 29 29 29 28 28 28 28 29 30 31 32 33 33 33 32 33 33 33 32 32 31 29 29 28 29 29 28 27 25 24 24 25 26 26
14 14 15 15 17 18 19 21 23 24 24 22 22 22 22 22 23 24 26 28 30 31 32 32 32 32 32 32 32 32 31 30 30 29 29 29 30 31 32 33 34 34 33 33 34 33 33 32 32 31 29 28 28 29 28 28 26 25 24 25 25 25
15 15 15 17 18 19 20 22 24 25 25 25 25 26 26 26 26 26 27 28 30 31 33 34 34 35 35 35 35 35 34 33 32 31 31 31 30 30 31 32 33 33 33 34 34 33 33 32 32 31 30 29 29 29 28 28 27 25 25 25 26 26
18 18 19 20 22 22 23 25 26 27 28 29 29 30 31 31 31 30 30 29 30 32 34 35 36 37 37 38 38 38 38 36 35 33 33 32 31 31 32 32 33 33 33 33 33 33 33 33 33 31 29 29 29 29 29 29 27 25 25 25 26 27
21 21 22 24 24 25 26 27 28 29 30 32 34 35 35 35 35 35 34 33 33 34 35 36 38 39 39 40 40 40 40 39 37 35 34 33 33 33 34 34 34 33 32 32 33 33 33 33 33 31 29 29 29 29 29 28 26 25 23 21 23 27
23 23 24 24 24 25 27 28 29 30 32 33 35 37 39 40 40 40 39 38 38 38 38 39 40 41 41 42 42 42 42 41 40 38 36 36 36 35 35 35 34 33 32 33 33 33 33 33 33 31 30 29 29 28 28 26 25 24 20 18 23 27
25 25 26 25 24 25 27 29 30 32 33 34 35 37 39 41 42 44 44 44 43 42 42 42 42 43 44 44 44 45 45 44 43 40 39 38 38 37 36 35 35 34 34 33 34 34 33 33 33 32 31 30 29 28 27 26 24 22 21 23 26 26
26 26 25 25 26 27 28 30 32 32 33 34 34 35 36 38 40 42 43 44 45 45 45 46 46 45 45 46 46 46 47 46 46 44 42 40 38 37 36 35 35 35 34 34 34 34 34 34 33 32 31 30 30 29 27 26 23 22 25 27 26 23
27 26 26 26 26 27 28 30 30 30 31 32 33 34 35 36 37 39 39 40 41 42 44 45 46 46 46 46 46 46 47 47 48 46 43 40 38 37 36 36 36 36 35 34 34 34 34 34 33 32 31 31 30 29 28 25 22 25 28 27 24 22
28 28 28 27 27 27 28 29 29 30 31 32 33 34 34 35 35 36 36 36 37 38 40 41 42 43 43 44 44 44 44 45 46 45 42 40 38 37 36 37 36 35 34 33 33 33 33 33 32 32 32 31 30 30 28 25 24 28 30 27 23 23
27 28 27 27 27 27 28 29 30 31 32 33 33 33 33 33 33 33 34 35 36 37 38 38 38 38 38 39 40 40 41 42 43 42 40 38 37 37 37 37 36 34 32 33 33 33 32 32 32 32 32 31 31 30 27 26 28 31 31 28 25 23
26 26 26 26 27 28 29 30 31 32 32 32 32 32 33 33 33 33 34 35 35 35 35 35 35 34 34 35 36 37 37 38 38 38 38 37 37 37 37 36 35 33 32 32 34 34 33 32 32 32 32 31 31 29 27 29 31 32 30 28 26 23
Wind_Direction
183 182 182 182 181 180 181 181 182 181 183 185 187 189 189 189 188 187 188 190 190 189 186 187 191 196 201 203 203 207 208 213 220 228 243 255 264 273 281 287 294 300 306 310 314 318 320 322 323 323 323 322 321 320 319 319 319 319 320 320 320 321
186 186 186 185 183 184 185 185 185 185 187 189 190 192 193 193 193 193 193 194 194 195 194 195 200 203 206 206 207 209 211 215 221 231 243 252 260 270 279 288 295 301 307 311 316 319 321 322 323 323 322 321 320 319 319 319 320 320 320 321 322 323
190 190 189 188 188 189 189 188 188 190 192 193 194 195 196 196 196 196 197 197 197 200 201 203 206 207 208 209 209 211 213 218 224 233 243 251 259 268 277 286 294 300 307 313 317 320 322 323 322 322 321 320 320 319 319 319 320 321 321 322 324 324
193 193 192 193 193 193 192 191 193 194 196 196 197 198 200 201 200 200 201 202 202 203 206 209 210 210 211 211 212 213 217 222 229 236 243 249 257 266 276 285 294 302 309 316 320 321 322 321 321 320 320 319 319 319 319 319 320 321 322 323 325 326
196 196 196 196 196 196 195 195 197 198 198 199 200 202 203 203 203 204 204 205 206 207 209 211 213 213 214 213 214 218 221 226 231 236 242 248 256 266 277 287 298 307 315 320 322 322 322 321 321 320 320 319 319 318 319 320 320 321 322 324 325 326
199 200 200 199 199 199 198 199 200 200 201 203 205 206 205 205 205 207 208 208 210 211 212 214 216 216 216 217 219 221 224 228 233 236 242 250 260 270 281 294 305 314 320 324 324 324 323 323 323 322 321 319 318 317 318 318 319 320 321 323 324 325
203 204 203 202 202 202 202 202 202 203 205 208 209 208 207 207 208 210 211 211 213 214 215 217 219 219 219 220 222 223 225 229 233 239 246 255 265 277 289 302 313 319 322 324 325 325 325 325 324 323 322 319 317 316 316 316 317 318 319 321 322 323
207 207 207 206 206 205 205 205 206 207 209 211 211 210 210 210 211 212 213 215 216 217 219 220 220 221 222 223 224 224 227 231 235 242 250 259 270 284 297 308 315 318 321 323 325 326 326 326 325 323 321 318 315 314 314 314 314 315 316 319 321 322
210 210 210 209 208 208 208 209 210 211 213 213 212 212 213 213 214 215 215 217 219 220 222 222 222 224 224 225 225 226 229 233 238 245 253 263 276 289 301 308 313 316 319 322 325 327 327 327 325 323 320 317 314 312 312 312 312 313 315 317 320 321
212 213 213 212 211 212 213 214 215 214 215 215 213 214 216 217 218 218 218 220 222 223 223 223 224 226 226 226 226 228 231 235 241 248 257 268 279 289 298 303 308 313 317 322 324 326 327 326 325 322 319 315 313 311 310 310 310 312 314 316 318 319
214 214 214 214 214 216 217 218 218 217 217 217 217 218 220 220 221 221 222 224 225 225 224 224 226 227 227 227 227 229 232 237 243 251 261 270 278 286 292 297 304 310 314 319 322 324 325 325 324 322 318 314 312 310 308 308 308 309 312 315 316 317
217 217 217 217 218 219 221 222 221 220 219 219 219 220 222 224 224 225 226 227 227 227 226 227 228 228 227 227 228 230 234 238 245 254 263 271 276 280 285 292 299 306 311 315 318 322 324 325 324 321 317 313 311 308 307 306 306 308 310 313 315 317
219 220 220 220 222 222 224 225 225 223 223 222 222 224 226 227 227 228 229 229 229 228 229 230 229 229 229 228 229 232 235 240 247 256 264 268 273 276 280 288 295 301 306 311 316 321 324 324 322 319 315 312 309 307 306 305 305 307 309 312 314 315
221 222 223 224 225 226 227 229 228 227 226 225 227 229 229 231 231 231 231 231 230 230 231 231 230 230 231 230 231 234 237 242 249 256 263 267 270 273 275 283 290 296 301 306 313 319 322 322 320 317 314 311 308 306 305 304 304 305 308 310 312 314
223 225 226 227 228 229 230 232 232 232 232 233 234 234 234 234 234 234 233 232 232 233 233 232 231 233 233 232 233 236 239 245 251 256 262 265 267 269 272 279 286 291 296 303 311 317 320 319 317 315 312 309 307 306 304 303 303 304 306 309 312 314
228 231 232 233 234 235 237 239 240 241 241 241 241 240 239 238 236 235 234 233 234 235 234 234 234 236 236 235 236 238 242 248 253 256 260 264 266 267 270 276 281 286 293 301 309 315 317 317 316 314 311 309 307 305 303 302 302 302 304 308 310 313
232 234 233 234 236 237 239 240 241 243 243 242 243 242 241 240 237 236 236 235 236 236 235 236 237 238 239 238 238 240 244 249 254 258 261 263 265 266 268 273 278 283 290 298 306 312 315 315 314 312 310 307 306 303 301 300 299 300 303 306 308 310
224 224 224 226 228 231 234 235 235 237 239 240 242 242 242 241 239 239 239 237 237 237 237 238 239 241 241 241 241 242 246 250 255 259 261 263 265 265 266 270 275 280 288 296 303 309 313 313 313 311 308 305 303 301 299 298 298 299 301 303 305 306
223 227 233 235 237 238 237 235 233 233 234 236 239 240 241 240 240 240 239 238 237 238 239 240 242 243 244 244 244 244 247 252 257 260 262 263 264 264 264 268 273 278 286 294 301 306 309 311 311 309 305 303 302 299 298 297 297 298 300 301 303 304
233 236 238 236 235 235 233 231 231 231 233 234 236 237 237 236 235 236 237 238 238 239 241 242 243 245 246 247 247 246 249 254 258 261 262 263 262 262 263 266 271 277 284 292 298 302 305 307 308 306 303 301 300 298 297 296 296 297 299 300 302 304
232 230 228 226 226 227 225 227 229 230 233 236 236 236 235 232 231 232 233 235 236 238 241 243 245 247 248 249 248 248 252 256 259 261 261 261 260 261 262 266 271 276 283 289 294 298 301 303 304 304 301 299 298 297 295 295 295 297 299 301 302 304
224 223 223 222 223 224 225 229 231 232 235 236 236 237 237 237 237 234 232 232 234 239 243 245 247 248 248 249 249 250 253 256 257 258 258 258 259 260 263 266 270 276 281 286 291 294 297 299 301 301 299 297 296 296 294 293 294 296 299 300 301 303
219 221 223 224 225 228 231 233 234 234 235 235 235 238 240 241 239 236 234 234 236 241 244 245 247 247 248 249 249 250 252 253 254 255 257 258 259 261 264 267 270 275 280 284 287 291 294 296 297 298 297 295 294 294 293 292 293 296 298 298 300 303
219 220 222 224 227 230 232 234 234 235 236 235 237 240 240 239 237 236 236 237 238 241 242 243 244 245 245 245 245 246 248 249 252 255 257 259 260 262 265 267 270 274 279 282 285 288 291 293 294 295 295 293 293 293 292 292 293 295 296 296 299 302
220 221 222 224 228 229 230 233 234 235 236 238 241 242 240 240 241 240 239 239 240 241 242 243 242 241 240 241 242 244 247 249 253 256 258 259 261 263 265 267 269 273 278 281 284 286 288 289 291 293 294 292 291 291 291 292 293 294 294 294 296 300
221 223 226 228 231 233 234 237 238 237 239 243 244 241 240 241 242 243 243 244 244 245 246 245 243 241 240 241 243 244 245 248 252 255 257 259 261 264 266 267 270 273 277 280 283 285 287 288 288 290 292 291 290 290 291 291 292 291 291 291 292 295
220 223 228 232 235 239 241 243 242 241 245 248 246 242 242 244 244 245 246 246 247 248 248 247 244 243 243 243 244 244 245 248 251 253 257 259 261 264 267 269 270 273 276 278 281 283 285 287 288 289 290 289 289 289 290 291 291 290 288 287 289 291
223 227 233 238 241 242 244 244 244 247 252 254 249 247 249 250 250 249 248 248 249 249 249 247 246 246 245 244 244 244 245 247 250 252 255 258 260 264 266 268 270 272 274 277 279 281 284 286 288 289 289 288 287 287 288 288 288 287 285 284 287 288
234 237 242 248 251 251 249 248 249 252 256 255 252 251 252 252 252 252 250 250 251 250 250 249 248 248 247 245 245 246 246 247 249 251 253 255 257 261 264 266 268 270 273 275 278 280 283 285 287 289 290 288 286 286 286 285 285 285 285 286 289 290
243 247 253 258 260 259 256 253 253 254 255 255 254 254 253 252 253 253 252 252 252 251 252 251 250 249 249 248 248 248 248 249 250 251 253 255 257 260 263 265 267 269 272 275 277 280 282 284 286 288 288 286 285 285 285 285 286 287 287 290 292 293
249 254 260 263 264 263 261 259 259 257 256 256 256 256 256 255 255 255 254 253 252 252 253 252 252 251 251 250 250 250 250 252 252 253 254 256 258 260 262 263 265 268 270 273 276 279 281 283 284 285 285 284 283 284 285 286 287 288 290 293 291 291
252 256 260 262 262 262 263 263 262 261 259 258 257 257 258 258 258 257 256 255 254 254 254 254 254 254 254 253 253 252 251 252 252 252 253 255 257 259 260 262 265 268 270 273 275 278 280 281 283 283 282 281 281 281 282 283 284 286 286 279 276 283
251 255 258 261 263 263 264 264 263 262 261 260 259 259 259 259 260 260 259 259 258 258 258 258 258 258 257 256 256 254 252 251 251 251 252 254 256 258 259 262 265 267 269 272 275 277 279 280 281 281 280 279 280 280 281 282 283 282 275 269 272 281
252 256 261 263 265 265 265 266 265 264 263 262 262 262 262 261 262 262 262 262 263 262 262 261 261 261 260 259 258 257 255 253 252 251 251 252 254 257 259 261 263 265 268 271 274 277 278 279 279 279 278 278 279 279 279 280 279 273 270 272 278 284
256 261 264 265 266 266 266 267 267 266 266 265 265 265 265 264 264 264 264 265 265 264 264 264 263 263 263 262 261 260 259 257 255 253 253 253 254 255 258 260 262 265 267 270 273 275 277 279 280 280 279 278 278 278 278 278 274 268 269 274 279 280
260 264 265 265 265 266 265 266 266 266 267 267 267 267 267 267 266 265 264 265 265 265 266 265 265 265 265 264 263 262 261 260 258 256 255 255 255 256 257 259 261 264 267 270 272 273 274 276 277 276 276 277 277 277 278 276 269 266 269 274 276 277
261 262 263 263 264 265 266 266 267 267 267 268 268 269 268 268 267 267 267 267 268 268 268 268 267 266 266 265 264 263 261 260 258 256 254 255 256 257 258 260 262 264 267 269 271 272 272 273 273 273 274 274 273 274 273 268 264 265 270 274 274 274
261 262 263 265 267 267 267 267 267 267 268 269 269 269 269 269 269 270 270 271 271 271 270 269 268 267 266 265 264 262 260 258 256 254 253 253 255 257 259 262 265 267 269 270 271 272 272 271 271 272 271 271 271 270 267 263 264 268 272 274 275 274